Date String (YYYY-MM-DD hh:mm:ss) UTC,Instrument flags,Ambient pressure (hPa),Sample flow (lpm),Bypass flow (lpm),Sample temperature (°C),Ambient temperature (°C),ASC tube jacket temperature (°C),LED temperature (°C),Box temperature (°C),Sample RH (%),Span deviation,Mass concentration (μg/m³),Mass concentration (μg/m³),Mass concentration (μg/m³)
DateTimeUTC,F1_M11,P_M11,Q1_M11,Q2_M11,T1_M11,T2_M11,T3_M11,T4_M11,T5_M11,U1_M11,ZSPAN_M11,X0_M11,X2_M11,X1_M11
2022-06-20 11:00:00,,0823.9,5.00,0.00,29.8,28.8,00.0,38.6,31.7,20.8,0000.0,0008.28,0003.94,0003.05
2022-06-20 11:01:00,,0824.0,5.00,0.00,29.8,28.8,00.0,38.6,31.7,20.8,0000.0,0008.30,0003.95,0003.05
2022-06-20 11:02:00,,0824.0,5.01,0.00,29.8,28.8,00.0,38.6,31.8,20.8,0000.0,0008.22,0003.93,0003.07
2022-06-20 11:03:00,,0823.9,5.00,0.00,29.9,28.9,00.0,38.6,31.8,20.8,0000.0,0008.27,0003.98,0003.11
2022-06-20 11:04:00,,0823.9,5.00,0.00,29.9,28.9,00.0,38.7,31.8,20.7,0000.0,0008.45,0004.05,0003.13
2022-06-20 11:05:00,,0824.0,5.00,0.00,29.9,28.9,00.0,38.7,31.8,20.8,0000.0,0007.77,0004.07,0003.12
2022-06-20 11:06:00,,0824.0,4.99,0.00,29.9,28.9,00.0,38.7,31.8,20.8,0000.0,0007.59,0004.02,0003.13
2022-06-20 11:07:00,,0823.9,5.00,0.00,29.9,28.9,00.0,38.7,31.8,20.8,0000.0,0007.56,0003.99,0003.13
2022-06-20 11:08:00,,0824.0,5.00,0.00,29.9,29.0,00.0,38.7,31.9,20.8,0000.0,0007.56,0003.98,0003.12
2022-06-20 11:09:00,,0823.9,5.00,0.00,30.0,29.0,00.0,38.7,31.9,20.8,0000.0,0007.51,0003.96,0003.13
2022-06-20 11:10:00,,0823.9,5.00,0.00,30.0,29.0,00.0,38.8,31.9,20.8,0000.0,0007.50,0003.95,0003.11
2022-06-20 11:11:00,,0824.0,5.00,0.00,30.0,29.0,00.0,38.8,31.9,20.9,0000.0,0007.47,0003.93,0003.11
2022-06-20 11:12:00,,0824.0,5.00,0.00,30.0,28.5,00.0,38.7,31.8,20.9,0000.0,0007.48,0003.94,0003.12
2022-06-20 11:13:00,,0824.0,5.01,0.00,29.9,27.6,00.0,38.6,31.6,21.0,0000.0,0007.60,0003.98,0003.11
2022-06-20 11:14:00,,0824.0,5.00,0.00,29.8,27.3,00.0,38.6,31.4,21.1,0000.0,0007.56,0003.93,0003.09
2022-06-20 11:15:00,,0824.0,4.99,0.00,29.7,27.3,00.0,38.6,31.3,21.2,0000.0,0007.73,0003.88,0003.06
2022-06-20 11:16:00,,0823.9,4.99,0.00,29.7,27.4,00.0,38.6,31.3,21.3,0000.0,0008.01,0003.85,0003.04
2022-06-20 11:17:00,,0824.0,5.00,0.00,29.6,27.5,00.0,38.6,31.3,21.3,0000.0,0008.08,0003.87,0003.02
2022-06-20 11:18:00,,0824.0,5.00,0.00,29.6,27.7,00.0,38.5,31.4,21.4,0000.0,0008.72,0003.91,0003.02
2022-06-20 11:19:00,,0824.0,5.01,0.00,29.6,27.8,00.0,38.5,31.4,21.5,0000.0,0008.90,0003.94,0003.03
2022-06-20 11:20:00,,0824.1,5.00,0.00,29.6,27.9,00.0,38.5,31.4,21.5,0000.0,0008.99,0003.98,0003.03
2022-06-20 11:21:00,,0824.1,4.99,0.00,29.6,28.1,00.0,38.5,31.4,21.5,0000.0,0009.05,0003.98,0003.02
2022-06-20 11:22:00,,0824.1,5.00,0.00,29.6,28.2,00.0,38.5,31.4,21.5,0000.0,0009.09,0003.99,0003.01
2022-06-20 11:23:00,,0824.1,4.99,0.00,29.6,28.2,00.0,38.5,31.4,21.5,0000.0,0009.11,0003.97,0003.00
2022-06-20 11:24:00,,0824.1,5.00,0.00,29.6,28.3,00.0,38.5,31.5,21.4,0000.0,0008.91,0003.89,0002.98
2022-06-20 11:25:00,,0824.1,4.99,0.00,29.6,28.4,00.0,38.5,31.5,21.3,0000.0,0008.74,0003.85,0002.95
2022-06-20 11:26:00,,0824.1,5.00,0.00,29.6,28.4,00.0,38.5,31.5,21.3,0000.0,0008.49,0003.82,0002.93
2022-06-20 11:27:00,,0824.1,4.99,0.00,29.7,28.5,00.0,38.5,31.5,21.2,0000.0,0008.05,0003.78,0002.92
2022-06-20 11:28:00,,0824.1,5.00,0.00,29.7,28.5,00.0,38.5,31.6,21.2,0000.0,0008.00,0003.76,0002.92
2022-06-20 11:29:00,,0824.1,5.00,0.00,29.7,28.6,00.0,38.5,31.6,21.2,0000.0,0007.45,0003.71,0002.90
2022-06-20 11:30:00,,0824.2,5.01,0.00,29.7,28.6,00.0,38.5,31.6,21.2,0000.0,0006.86,0003.66,0002.85
2022-06-20 11:31:00,,0824.3,5.01,0.00,29.7,28.7,00.0,38.5,31.6,21.1,0000.0,0006.77,0003.62,0002.81
2022-06-20 11:32:00,,0824.3,5.00,0.00,29.7,28.7,00.0,38.5,31.6,21.1,0000.0,0006.67,0003.61,0002.79
2022-06-20 11:33:00,,0824.2,5.01,0.00,29.8,28.8,00.0,38.6,31.7,21.1,0000.0,0006.51,0003.58,0002.76
2022-06-20 11:34:00,,0824.2,4.99,0.00,29.8,28.8,00.0,38.6,31.7,21.1,0000.0,0006.35,0003.57,0002.74
2022-06-20 11:35:00,,0824.4,4.99,0.00,29.8,28.8,00.0,38.6,31.7,21.0,0000.0,0006.53,0003.56,0002.72
2022-06-20 11:36:00,,0824.4,5.00,0.00,29.8,28.8,00.0,38.6,31.7,20.9,0000.0,0006.57,0003.52,0002.72
2022-06-20 11:37:00,,0824.3,5.00,0.00,29.8,28.9,00.0,38.6,31.7,20.9,0000.0,0006.42,0003.51,0002.71
2022-06-20 11:38:00,,0824.3,5.00,0.00,29.9,28.9,00.0,38.6,31.8,20.9,0000.0,0006.49,0003.52,0002.71
2022-06-20 11:39:00,,0824.3,5.01,0.00,29.9,28.9,00.0,38.6,31.7,20.9,0000.0,0006.55,0003.51,0002.69
2022-06-20 11:40:00,,0824.4,5.00,0.00,29.9,28.9,00.0,38.7,31.8,20.9,0000.0,0006.52,0003.51,0002.66
2022-06-20 11:41:00,,0824.4,4.99,0.00,29.9,29.0,00.0,38.7,31.8,20.9,0000.0,0006.53,0003.51,0002.68
2022-06-20 11:42:00,,0824.3,5.00,0.00,29.9,29.0,00.0,38.7,31.8,20.9,0000.0,0006.61,0003.51,0002.69
2022-06-20 11:43:00,,0824.4,5.01,0.00,29.9,29.0,00.0,38.7,31.9,20.8,0000.0,0006.86,0003.55,0002.71
2022-06-20 11:44:00,,0824.4,5.01,0.00,30.0,29.0,00.0,38.7,31.9,20.6,0000.0,0006.92,0003.56,0002.71
2022-06-20 11:45:00,,0824.4,5.00,0.00,30.0,29.0,00.0,38.7,31.9,20.4,0000.0,0007.02,0003.55,0002.72
2022-06-20 11:46:00,,0824.4,4.99,0.00,30.0,29.0,00.0,38.8,31.9,20.3,0000.0,0007.41,0003.59,0002.72
2022-06-20 11:47:00,,0824.4,5.00,0.00,30.0,29.1,00.0,38.8,31.9,20.1,0000.0,0007.68,0003.68,0002.72
2022-06-20 11:48:00,,0824.4,5.00,0.00,30.0,29.1,00.0,38.8,31.9,20.2,0000.0,0007.92,0003.74,0002.73
2022-06-20 11:49:00,,0824.5,5.00,0.00,30.0,29.1,00.0,38.8,31.9,20.3,0000.0,0008.45,0003.78,0002.74
2022-06-20 11:50:00,,0824.5,5.00,0.00,30.1,29.1,00.0,38.8,32.0,20.0,0000.0,0008.73,0003.89,0002.78
2022-06-20 11:51:00,,0824.5,5.00,0.00,30.1,29.1,00.0,38.8,32.0,19.8,0000.0,0008.86,0003.94,0002.81
2022-06-20 11:52:00,,0824.4,5.00,0.00,30.1,29.0,00.0,38.8,31.9,19.8,0000.0,0009.14,0004.01,0002.82
2022-06-20 11:53:00,,0824.5,5.01,0.00,30.0,28.2,00.0,38.8,31.8,19.9,0000.0,0009.40,0004.06,0002.84
2022-06-20 11:54:00,,0824.4,5.00,0.00,30.0,27.7,00.0,38.7,31.6,20.2,0000.0,0009.50,0004.04,0002.83
2022-06-20 11:55:00,,0824.5,5.00,0.00,29.9,27.5,00.0,38.7,31.5,20.4,0000.0,0009.57,0004.05,0002.84
2022-06-20 11:56:00,,0824.4,5.00,0.00,29.8,27.6,00.0,38.7,31.4,20.6,0000.0,0009.68,0004.07,0002.85
2022-06-20 11:57:00,,0824.4,5.00,0.00,29.8,27.7,00.0,38.7,31.4,20.7,0000.0,0009.46,0004.07,0002.87
2022-06-20 11:58:00,,0824.4,5.00,0.00,29.7,27.8,00.0,38.6,31.4,20.7,0000.0,0009.44,0004.09,0002.89
2022-06-20 11:59:00,,0824.5,5.00,0.00,29.7,27.9,00.0,38.6,31.5,20.7,0000.0,0009.36,0004.08,0002.90
